Погода в Вильянди

Погода в Вильянди : погода сейчас, прогноз погоды и архив. Всё, что Вы хотите узнать о погоде в Вильянди!

Поиск расширенной информации на нашем сайте:

Полезная информация:

Другие новости

Новости СМИ2

Главная страница сайта

Новости сайта

03.07.2017

Напоминаем, что на нашем специализированном сайте Метеоцентр.Азия вы можете получить высокодетализированные автоматические прогнозы погоды по пунктам России, СНГ и мира в авиационном формате (включающие направление и скорость ветра, видимость, явления погоды, количество и форму облачности, нижнюю и верхнюю границу облачности).

Рекомендуем:

Погода в Вильянди - сегодня

Время (UTC), дата Ветер
(°,м/с) 
Видим.   Явления Облачность Т
(°С)
Тd
(°С)
f(%) Тe
(°С)
Pmin
(гПа)
dP
(гПа)
Po
(мм)
O2
(г/м3)
Тmin Tmax R s Состояние
почвы
00 19.03.19 180 (Ю) 20000 м  в посл. час дождь  9/8 720 м 
[]
+3 +0.1 81 +2  1004.9  0.1  746  297  +2.7  +6.4       
03 19.03.19 190 (Ю) 4{09}  20000 м  ливневой дождь  9/9 450 м 
[]
+2.8 +0.9 87 +1  1005.4  0.5  746  297  +2.7  +6.2       
06 19.03.19 230 (ЮЗ) 20000 м  в посл. час дождь со снегом  10/10 150 м 
[]
+2 +1.3 95 1007.2  1.8  747  299  +1.8  +3.7  0.7   
09 19.03.19 230 (ЮЗ) 4{12}  20000 м  ливневой дождь  9/9 360 м 
[]
+2.1 -0.2 85 1009.1  1.9  749  299  +1.5  +3.4  0.1     
12 19.03.19 220 (ЮЗ) 4-9{10}  20000 м  в посл. час дождь{ливн. осадки}  9/9 400 м 
[]
+2.7 -0.2 81 +1  1010.9  1.8  750  299  +1.5  +3.4       
15 19.03.19 230 (ЮЗ) 3{09}  7000 м  слаб. дождь  10/10 240 м 
[]
+1.9 +0.9 93 1012.4  1.5  751  300  +1.5  +3.1  0.2     
18 19.03.19 260 (З) 4{08}  20000 м  ливневой дождь  10/10 120 м 
[]
+1.2 +0.7 96 -1  1015.4  753  302  +1.2  +3.1  0.4     
21 19.03.19 260 (З) 4{08}  3700 м  ливневой дождь{снег}  10/10 60 м 
[]
+0 -0.3 98 -2  1018.1  2.7  755  304  +0  +3.1  0.1     
00 20.03.19 260 (З) 4{09}  3900 м  ливневой дождь  9/9 60 м 
[]
-0.1 -0.1 100 -3  1019.9  1.8  757  305  -0.1  +3       
03 20.03.19 260 (З) 4{08}  15000 м  слаб. ливневой снег  9/9 180 м 
[]
-0.8 -2 92 -3  1021.4  1.5  758  306  -0.8  +2  0.2     
06 20.03.19 270 (З) 4-8{09}  20000 м  в посл. час переохл. осадки (гололёд){ливн. осадки}  10/10 300 м 
[]
-0.9 -2.9 86 -3  1022.5  1.1  759  307  -1.3  +1.2     
09 20.03.19 250 (З) 4-8{08}  20000 м    5/5 480 м 
[]
+2.7 -1.1 76 +1  1022  -0.5  758  303  -1.3  +2.8       
12 20.03.19 240 (ЮЗ) 5-10{11}  20000 м    9/0 
[]
+4.7 -3.7 54 +3  1020.8  -1.2  758  300  -1.3  +5.6       
15 20.03.19 210 (ЮЗ) 5-11{12}  20000 м    9/9 1500 м 
[]
+4.5 -3.2 57 +2  1017.8  -3  755  300  -1.3  +5.6       
18 20.03.19 230 (ЮЗ) 4{13}  3100 м  переохл. дождь (гололёд)  10/10 150 м 
[]
+0.9 +0.4 96 -1  1017.3  -0.5  755  303  -0.9  +5.6     
21 20.03.19 260 (З) 20000 м  {ливн. осадки}  10/10 120 м 
[]
+2.3 +1.8 96 +1  1017.8  0.5  755  301  +0.8  +5.6  0.2     
00 21.03.19 250 (З) 3{09}  20000 м    9/9 120 м 
[]
+2.2 +1.7 96 +1  1019  1.2  756  302  +0.8  +5.1       
03 21.03.19 260 (З) 1200 м  дымка  н/о 
+1.4 +1.4 100 -1  1019.7  0.7  757  303  +0.8  +4.6       
06 21.03.19 230 (ЮЗ) 20000 м    6/3 100 м 
[]
+1.8 +1.3 96 1020.3  0.6  757  303  +0.8  +2.5     
09 21.03.19 230 (ЮЗ) 4-8{08}  20000 м    9/1 300 м 
[]
+5.3 +2.9 84 +4  1020.1  0.2  757  299  +1  +5.3       
12 21.03.19 230 (ЮЗ) 4-9{10}  20000 м    8/0 2000 м 
[]
+6.8 +2.5 74 +5  1018.4  -1.7  756  297  +1  +6.8       
18 21.03.19 250 (З) 4-7  9000 м    н/о 
+4.9 +4.5 97 +3  1013.6  -2.6  752  297  +1.9  +7.1  0.8     
21 21.03.19 270 (З) 3{09}  4300 м  ливневой дождь{морось}  10/10 60 м 
[]
+4.2 +4.1 99 +3  1013.7  0.1  752  298  +4.2  +7.1  0.2     
00 22.03.19 300 (СЗ) 2{09}  20000 м    9/0 
[]
+3.9 +2.5 91 +3  1016.1  2.4  754  299  +3.9  +7.1       
03 22.03.19 300 (СЗ) 3-8{10}  20000 м    ясно 
[]
+1.4 -2.8 74 1019.2  3.1  756  304  +1.1  +5       
Время (UTC), дата Ветер
(°,м/с) 
Видим.   Явления Облачность Т
(°С)
Тd
(°С)
f(%) Тe
(°С)
Pmin
(гПа)
dP
(гПа)
Po
(мм)
O2
(г/м3)
Тmin Tmax R s Состояние
почвы

Для получения пояснительной информации подведите курсор к названию столбца.

ПОГОДА в Вильянди - архив

Всё, что Вы хотите узнать о погоде в Вильянди - удобно и подробно!

Выберите нужную дату (начиная с 1 января 2018* года) и нажмите кнопку "Найти".
Будут отображены архивные сводки погоды по пункту Вильянди, начиная с указанной даты.


Отображать данные в формате CSV (для использования в таблицах Excel)


Внимание! Наш архив погоды предназначен исключительно для личного некоммерческого использования в познавательных целях. Если Вам необходимы официальные справки о состоянии погоды (для производственных, юридических, коммерческих и т.п. целей), обращайтесь в органы Росгидромета.

*Примечание: данная дата относится к архиву по метеостанциям СССР (Россия, СНГ, Балтия).
Архив по метеостанциям Зарубежной Европы и Азии (кроме Китая) хранится 10 дней, по другим регионам земного шара (Китай, Африка, Америка, Австралия, Океания) - 1 день.

Вильянди - район местоположения метеостанции


Название, широта, долгота, высота метеостанции:
Вильянди 58.4°ш. 25.6°д. 87 м над ур. моря [Эстония]

Дополнительная информация

В oтличие oт бoльшинства пoгoдных сайтoв мы публикуем пoдрoбную метеoинфoрмацию в детальнoм прoфессиoнальнoм фoрмате.

Характеристики температуры и влажнoсти вoздуха измеряются на высoте 2 м в тени вдали oт зданий и деревьев.
Скoрoсть ветра измеряется на высoте 10 м (на урoвне рoста челoвека скoрoсть ветра ниже в 1.5-2 раза). Если метеoстанция нахoдится в гoрoде или в лесу, тo скoрoсть ветра занижена на 2-4 м/с пo сравнению с oткрытым местoм. Скoрoсть ветра над акватoриями крупных рек и oзёр, а также на вершинах хoлмoв на 2-5 м/с выше, чем в oбычных услoвиях.
Атмoсфернoе давление в разных тoчках местнoсти мoжет значительнo oтличаться oт давления на метеoстанции, в зависимoсти oт услoвий рельефа (при пoдъёме на 10 м давление пoнижается примернo на 1 мм рт.ст.).